Location: Unspecified
(0.0000°N, 0.0000°E)
Time: 18:33:15
(UTC+00:00)

Courier 1B Rocket - Visible Passes

Search period start: 17 October 2017 00:00
Search period end: 27 October 2017 00:00
Orbit: 921 x 1202 km, 28.2° (Epoch: 16 October)

Date Brightness Start Highest point End Pass type
(mag) Time Alt. Az. Time Alt. Az. Time Alt. Az.
17 Oct 7.1 20:03:58 10° NNW 20:05:49 17° NNW 20:05:49 17° NNW visible
18 Oct 6.7 19:03:56 10° NNW 19:08:28 18° NNE 19:08:50 18° NNE visible
19 Oct 7.0 18:04:48 10° N 18:07:01 12° NNE 18:09:16 10° NE visible
19 Oct 6.4 19:54:43 10° NW 19:58:20 28° NNW 19:58:20 28° NNW visible
20 Oct 6.2 18:54:24 10° NNW 18:59:58 26° NNE 19:01:33 24° NE visible
20 Oct 7.3 20:46:34 10° WNW 20:47:57 17° WNW 20:47:57 17° WNW visible
21 Oct 5.5 19:45:43 10° NW 19:51:15 52° N 19:51:15 52° N visible
22 Oct 5.7 18:45:10 10° NW 18:51:23 39° NNE 18:54:40 25° ENE visible
22 Oct 6.8 20:38:05 10° WNW 20:41:05 28° W 20:41:05 28° W visible
23 Oct 7.7 04:24:48 10° S 04:27:16 12° SSE 04:29:41 10° SE visible
23 Oct 5.0 19:37:00 10° WNW 19:43:51 89° NE 19:44:35 74° ESE visible
24 Oct 7.3 05:14:46 10° SSW 05:20:36 24° SSE 05:26:11 10° ESE visible
24 Oct 5.2 18:36:13 10° NW 18:42:43 60° NNE 18:48:10 17° ESE visible
24 Oct 6.5 20:29:57 10° W 20:34:36 35° WSW 20:34:36 35° WSW visible
25 Oct 7.6 04:14:17 10° SSW 04:19:03 17° SSE 04:23:41 10° ESE visible
25 Oct 5.5 19:28:34 10° WNW 19:35:11 60° SSW 19:38:15 34° SE visible
25 Oct 7.9 21:24:29 10° WSW 21:24:41 11° WSW 21:24:41 11° WSW visible
26 Oct 7.7 03:14:16 10° S 03:17:20 12° SSE 03:20:21 10° SE visible
26 Oct 6.8 05:05:13 10° SW 05:12:07 35° SSE 05:18:38 10° E visible
26 Oct 5.1 18:27:31 10° WNW 18:34:04 89° SSW 18:41:08 10° ESE visible
26 Oct 6.7 20:22:16 10° W 20:27:55 27° SSW 20:28:22 27° SSW visible
